FW1665 Weather Reports


Display with metric or nautical units.
time (UTC)temp
F
wind
direction
speed
MPH
gust
MPH
rain 1hr
in
rain 24hr
in
rain mn
in
humidity
%
barometer
mb
20260502214403 59 57 2.0 4.0 0.00 0.00 0.36 99 1013.0
20260502213913 60 43 1.0 2.0 0.00 0.00 0.36 99 1013.0
20260502213403 59 36 0.0 1.0 0.00 0.00 0.36 99 1013.0
20260502212903 59 36 1.0 2.0 0.00 0.00 0.36 99 1012.9
20260502212404 59 36 0.0 0.0 0.00 0.00 0.36 99 1012.8
20260502211914 60 36 0.0 0.0 0.00 0.00 0.36 99 1012.7
20260502211403 60 36 0.0 0.0 0.00 0.00 0.36 99 1012.7
20260502210903 60 36 0.0 0.0 0.00 0.00 0.36 98 1012.8
20260502210404 60 33 1.0 2.0 0.00 0.00 0.36 98 1012.8
20260502205903 60 35 1.0 2.0 0.00 0.00 0.36 98 1013.1
20260502205403 60 36 0.0 0.0 0.00 0.00 0.36 98 1013.0
20260502204903 60 36 0.0 1.0 0.00 0.00 0.36 97 1013.1
20260502204414 60 36 0.0 0.0 0.02 0.00 0.36 97 1013.2
20260502203903 60 36 0.0 0.0 0.02 0.00 0.36 97 1013.0
20260502203403 60 42 1.0 2.0 0.02 0.00 0.36 97 1013.0
20260502202904 60 44 2.0 3.0 0.02 0.00 0.36 97 1013.0
20260502202404 60 36 1.0 2.0 0.02 0.00 0.36 97 1013.0
20260502201903 61 36 1.0 2.0 0.02 0.00 0.36 97 1013.1
20260502201403 61 36 0.0 2.0 0.03 0.00 0.36 97 1013.4
20260502200904 60 36 0.0 0.0 0.03 0.00 0.36 97 1013.6
20260502200403 60 36 0.0 0.0 0.05 0.00 0.36 97 1013.6
20260502195903 61 45 1.0 3.0 0.05 0.00 0.36 96 1013.7
20260502195403 61 42 1.0 2.0 0.05 0.00 0.36 97 1013.5
20260502194904 61 42 1.0 2.0 0.05 0.00 0.36 96 1013.9
20260502194403 61 48 1.0 2.0 0.03 0.00 0.35 95 1014.1
20260502193903 61 48 0.0 2.0 0.03 0.00 0.35 96 1014.2
20260502193403 61 48 1.0 2.0 0.03 0.00 0.35 96 1014.3
20260502192903 61 47 0.0 0.0 0.03 0.00 0.35 96 1014.5
20260502192403 60 47 0.0 0.0 0.08 0.00 0.35 96 1014.7
20260502191903 61 47 0.0 0.0 0.19 0.00 0.35 95 1014.6
20260502191414 61 63 1.0 2.0 0.19 0.00 0.33 95 1014.5
20260502190903 62 72 1.0 3.0 0.17 0.00 0.31 93 1014.2
20260502190403 62 78 2.0 4.0 0.17 0.00 0.31 93 1014.1
20260502185903 62 86 2.0 3.0 0.19 0.00 0.31 94 1014.2
20260502185404 62 89 1.0 3.0 0.20 0.00 0.31 94 1014.4
20260502184903 62 90 1.0 2.0 0.20 0.00 0.31 95 1014.3
20260502184403 62 93 2.0 3.0 0.22 0.00 0.31 95 1014.3
20260502183903 62 84 1.0 4.0 0.22 0.00 0.31 94 1014.1
20260502183404 62 68 1.0 2.0 0.22 0.00 0.31 96 1014.1
20260502182903 63 77 1.0 3.0 0.25 0.00 0.31 97 1014.2
20260502182403 64 76 2.0 3.0 0.22 0.00 0.25 97 1014.2
20260502181904 65 53 2.0 4.0 0.14 0.00 0.14 97 1014.4
20260502181403 65 50 1.0 2.0 0.14 0.00 0.14 97 1014.0
20260502180903 66 67 1.0 2.0 0.14 0.00 0.14 97 1013.9
20260502180403 66 60 0.0 0.0 0.14 0.00 0.14 96 1013.4
20260502170404 74 82 2.0 3.0 0.00 0.00 0.00 67 1012.8
20260502163903 76 70 0.0 0.0 0.00 0.00 0.00 57 1013.4
20260502163403 76 68 1.0 3.0 0.00 0.00 0.00 59 1013.5
20260502162913 76 70 1.0 3.0 0.00 0.00 0.00 56 1013.5
20260502162404 77 63 2.0 4.0 0.00 0.00 0.00 57 1013.5
20260502161903 77 70 1.0 3.0 0.00 0.00 0.00 57 1013.7
20260502161403 77 68 2.0 3.0 0.00 0.00 0.00 57 1013.7
20260502160903 78 92 1.0 2.0 0.00 0.00 0.00 55 1013.8
20260502160414 79 185 1.0 2.0 0.00 0.00 0.00 49 1013.8
20260502151903 81 118 1.0 3.0 0.00 0.00 0.00 49 1014.4
20260502151403 81 346 2.0 3.0 0.00 0.00 0.00 48 1014.4
20260502150904 81 140 1.0 2.0 0.00 0.00 0.00 47 1014.5
20260502150403 81 178 2.0 3.0 0.00 0.00 0.00 48 1014.6
20260502130413 78 121 1.0 2.0 0.00 0.00 0.00 53 1016.0
20260502123403 78 171 2.0 4.0 0.00 0.00 0.00 52 1016.3
20260502122903 78 114 2.0 6.0 0.00 0.00 0.00 51 1016.4
20260502122403 78 89 2.0 3.0 0.00 0.00 0.00 53 1016.5
20260502121914 78 88 2.0 4.0 0.00 0.00 0.00 53 1016.5
20260502121403 77 92 2.0 4.0 0.00 0.00 0.00 53 1016.7
20260502120903 77 192 2.0 4.0 0.00 0.00 0.00 54 1016.6
20260502120403 78 325 2.0 3.0 0.00 0.00 0.00 52 1016.6
20260502115914 77 323 2.0 4.0 0.00 0.00 0.00 52 1016.6
20260502115403 77 213 2.0 4.0 0.00 0.00 0.00 54 1016.7
20260502114913 78 355 1.0 3.0 0.00 0.00 0.00 53 1016.8
20260502114404 77 327 2.0 3.0 0.00 0.00 0.00 54 1016.9
20260502113903 76 354 2.0 4.0 0.00 0.00 0.00 56 1016.9
20260502113403 75 273 2.0 4.0 0.00 0.00 0.00 57 1016.9
20260502112903 76 154 2.0 4.0 0.00 0.00 0.00 55 1017.1
20260502112404 77 67 2.0 5.0 0.00 0.00 0.00 53 1017.2
20260502111903 77 78 1.0 3.0 0.00 0.00 0.00 56 1017.2
20260502111413 76 74 1.0 3.0 0.00 0.00 0.00 53 1017.2
20260502110903 75 187 1.0 4.0 0.00 0.00 0.00 57 1017.3
20260502110404 76 72 1.0 2.0 0.00 0.00 0.00 53 1017.3
20260502105903 75 73 2.0 3.0 0.00 0.00 0.00 57 1017.3
20260502105403 76 71 1.0 4.0 0.00 0.00 0.00 57 1017.4
20260502104903 75 75 1.0 3.0 0.00 0.00 0.00 55 1017.5
20260502104403 75 203 1.0 3.0 0.00 0.00 0.00 55 1017.5
20260502103903 75 109 1.0 4.0 0.00 0.00 0.00 56 1017.5
20260502103403 74 250 1.0 2.0 0.00 0.00 0.00 56 1017.6
20260502102904 74 325 2.0 3.0 0.00 0.00 0.00 56 1017.7
20260502102404 75 67 1.0 2.0 0.00 0.00 0.00 53 1017.7
20260502101903 75 59 1.0 2.0 0.00 0.00 0.00 55 1017.7
20260502101403 74 77 1.0 2.0 0.00 0.00 0.00 57 1017.8
20260502100904 74 354 2.0 3.0 0.00 0.00 0.00 56 1017.8
20260502100404 74 158 2.0 4.0 0.00 0.00 0.00 58 1017.9
20260502091404 70 79 2.0 3.0 0.00 0.00 0.00 57 1018.2
20260502090904 70 81 1.0 2.0 0.00 0.00 0.00 62 1018.3
20260502090403 69 82 2.0 2.0 0.00 0.00 0.00 59 1018.3
20260502071403 66 68 1.0 2.0 0.00 0.00 0.00 50 1018.6
20260502070903 64 66 0.0 2.0 0.00 0.00 0.00 56 1018.7
20260502070413 63 66 0.0 2.0 0.00 0.00 0.00 59 1018.6
20260502065904 62 66 0.0 2.0 0.00 0.00 0.00 58 1018.6
20260502065403 62 66 1.0 3.0 0.00 0.00 0.00 60 1018.6
20260502064913 62 66 0.0 2.0 0.00 0.00 0.00 61 1018.6
20260502064404 62 66 0.0 1.0 0.00 0.00 0.00 62 1018.6
20260502063904 61 66 0.0 1.0 0.00 0.00 0.00 58 1018.5
20260502063403 60 66 0.0 0.0 0.00 0.00 0.00 63 1018.6
20260502062903 58 66 0.0 0.0 0.00 0.00 0.00 66 1018.7
20260502062404 58 66 0.0 0.0 0.00 0.00 0.00 67 1018.6
20260502061903 58 66 1.0 2.0 0.00 0.00 0.00 64 1018.6
20260502060903 57 66 0.0 2.0 0.00 0.00 0.00 68 1018.7
20260502060414 57 66 2.0 3.0 0.00 0.00 0.00 65 1018.6
20260502055903 57 66 1.0 2.0 0.00 0.00 0.00 65 1018.6
20260502055413 58 66 0.0 2.0 0.00 0.00 0.00 70 1018.6
20260502054903 58 66 0.0 2.0 0.00 0.00 0.00 66 1018.5
20260502054404 57 66 0.0 0.0 0.00 0.00 0.00 74 1018.4
20260502053903 56 66 0.0 0.0 0.00 0.00 0.00 73 1018.4
20260502053404 55 66 0.0 0.0 0.00 0.00 0.00 71 1018.4
20260502052903 54 66 0.0 0.0 0.00 0.00 0.00 75 1018.4
20260502052404 53 66 0.0 2.0 0.00 0.00 0.00 78 1018.4
20260502051903 54 66 0.0 0.0 0.00 0.00 0.00 77 1018.4
20260502051413 53 66 0.0 0.0 0.00 0.00 0.00 77 1018.4
20260502050904 52 66 0.0 0.0 0.00 0.00 0.00 77 1018.4
20260502050403 51 66 0.0 0.0 0.00 0.00 0.00 77 1018.3
20260502045913 50 66 0.0 2.0 0.00 0.00 0.00 76 1018.3
20260502045403 49 66 0.0 2.0 0.00 0.00 0.00 85 1018.4
20260502044914 49 66 0.0 0.0 0.00 0.00 0.00 86 1018.4
20260502044403 49 66 0.0 0.0 0.00 0.00 0.00 86 1018.4
20260502043903 49 66 0.0 0.0 0.00 0.00 0.00 86 1018.3
20260502043403 49 66 0.0 0.0 0.00 0.00 0.00 86 1018.4
20260502042904 48 66 0.0 0.0 0.00 0.00 0.00 87 1018.5
20260502042403 48 66 0.0 0.0 0.00 0.00 0.00 87 1018.4
20260502041903 48 66 0.0 0.0 0.00 0.00 0.00 87 1018.5
20260502041404 48 66 0.0 0.0 0.00 0.00 0.00 87 1018.5
20260502040904 49 66 0.0 0.0 0.00 0.00 0.00 84 1018.5
20260502040403 49 66 0.0 0.0 0.00 0.00 0.00 81 1018.5
20260502035903 48 66 0.0 0.0 0.00 0.00 0.00 80 1018.5
20260502035404 48 66 0.0 0.0 0.00 0.00 0.00 80 1018.6
20260502034903 48 66 0.0 0.0 0.00 0.00 0.00 78 1018.6
20260502034413 48 66 0.0 0.0 0.00 0.00 0.00 80 1018.6
20260502033903 48 66 0.0 0.0 0.00 0.00 0.00 79 1018.6
20260502033404 49 66 0.0 0.0 0.00 0.00 0.00 80 1018.6
20260502032903 49 66 0.0 0.0 0.00 0.00 0.00 77 1018.6
20260502032403 48 66 0.0 1.0 0.00 0.00 0.00 81 1018.6
20260502031904 48 66 0.0 0.0 0.00 0.00 0.00 84 1018.7
20260502031403 49 66 0.0 0.0 0.00 0.00 0.00 82 1018.7
20260502030903 49 66 0.0 0.0 0.00 0.00 0.00 79 1018.7
20260502030403 50 66 0.0 0.0 0.00 0.00 0.00 74 1018.7
20260502025904 51 66 0.0 0.0 0.00 0.00 0.00 73 1018.7
20260502025403 51 66 0.0 2.0 0.00 0.00 0.00 69 1018.7
20260502024903 49 66 0.0 2.0 0.00 0.00 0.00 73 1018.8
20260502024403 48 66 1.0 2.0 0.00 0.00 0.00 77 1018.9
20260502023904 47 66 0.0 0.0 0.00 0.00 0.00 92 1019.0
20260502023403 47 66 0.0 0.0 0.00 0.00 0.00 92 1019.0
20260502022903 47 66 0.0 0.0 0.00 0.00 0.00 92 1019.0
20260502022404 47 66 0.0 0.0 0.00 0.00 0.00 92 1019.1
20260502021903 47 66 0.0 0.0 0.00 0.00 0.00 91 1019.1
20260502021403 46 66 0.0 0.0 0.00 0.00 0.00 89 1019.0
20260502020904 46 66 0.0 0.0 0.00 0.00 0.00 90 1019.0
20260502020404 46 66 0.0 0.0 0.00 0.00 0.00 90 1019.1
20260502015913 46 66 0.0 0.0 0.00 0.00 0.00 90 1019.1
20260502015403 47 66 0.0 0.0 0.00 0.00 0.00 89 1019.2
20260502014904 47 66 0.0 0.0 0.00 0.00 0.00 90 1019.2
20260502014403 47 66 0.0 0.0 0.00 0.00 0.00 90 1019.3
20260502013903 47 66 0.0 0.0 0.00 0.00 0.00 88 1019.2
20260502013414 47 66 0.0 0.0 0.00 0.00 0.00 87 1019.3
20260502012913 47 66 0.0 0.0 0.00 0.00 0.00 86 1019.4
20260502012403 47 66 0.0 0.0 0.00 0.00 0.00 86 1019.4
20260502011913 47 66 0.0 0.0 0.00 0.00 0.00 86 1019.4
20260502011404 47 66 0.0 0.0 0.00 0.00 0.00 87 1019.4
20260502010903 48 66 0.0 0.0 0.00 0.00 0.00 87 1019.5
20260502010403 48 66 0.0 0.0 0.00 0.00 0.00 87 1019.5
20260502005903 48 66 0.0 0.0 0.00 0.00 0.00 87 1019.5
20260502005414 48 66 0.0 0.0 0.00 0.00 0.00 88 1019.5
20260502004903 48 66 0.0 0.0 0.00 0.00 0.00 88 1019.6
20260502004403 49 66 0.0 0.0 0.00 0.00 0.00 88 1019.7
20260502003904 49 66 0.0 0.0 0.00 0.00 0.00 88 1019.7
20260502003413 49 66 0.0 0.0 0.00 0.00 0.00 86 1019.7
20260502002903 50 66 0.0 0.0 0.00 0.00 0.00 85 1019.8
20260502002403 50 66 0.0 0.0 0.00 0.00 0.00 81 1019.8
20260502001904 49 66 0.0 0.0 0.00 0.00 0.00 77 1019.9
20260502001403 50 66 0.0 0.0 0.00 0.00 0.00 75 1019.9
20260502000903 50 66 0.0 0.0 0.00 0.00 0.00 74 1020.0
20260502000404 50 66 0.0 0.0 0.00 0.00 0.00 74 1020.0
20260501235903 50 66 0.0 0.0 0.00 0.00 0.00 73 1020.1
20260501235403 51 66 0.0 0.0 0.00 0.00 0.00 71 1020.1
20260501234913 51 66 0.0 0.0 0.00 0.00 0.00 70 1020.2
20260501234404 51 66 0.0 0.0 0.00 0.00 0.00 71 1020.2
20260501233903 51 66 0.0 0.0 0.00 0.00 0.00 71 1020.2
20260501233403 51 66 0.0 0.0 0.00 0.00 0.00 71 1020.3
20260501232913 51 66 0.0 0.0 0.00 0.00 0.00 71 1020.3
20260501232404 51 66 0.0 0.0 0.00 0.00 0.00 70 1020.4
20260501231913 51 66 0.0 0.0 0.00 0.00 0.00 70 1020.4
20260501231403 52 66 0.0 0.0 0.00 0.00 0.00 69 1020.5
20260501230904 52 66 0.0 0.0 0.00 0.00 0.00 70 1020.5
20260501230414 52 66 0.0 0.0 0.00 0.00 0.00 69 1020.5
20260501225903 52 66 0.0 0.0 0.00 0.00 0.00 68 1020.5
20260501225403 52 66 0.0 0.0 0.00 0.00 0.00 68 1020.5
20260501224904 53 66 0.0 0.0 0.00 0.00 0.00 67 1020.5
20260501224404 53 66 0.0 0.0 0.00 0.00 0.00 66 1020.5
20260501223903 53 66 0.0 0.0 0.00 0.00 0.00 65 1020.5
20260501223414 54 66 0.0 0.0 0.00 0.00 0.00 65 1020.5
20260501222903 54 66 0.0 0.0 0.00 0.00 0.00 64 1020.6
20260501222403 55 66 0.0 0.0 0.00 0.00 0.00 64 1020.5
20260501221903 55 66 0.0 0.0 0.00 0.00 0.00 62 1020.5
20260501221404 56 66 0.0 0.0 0.00 0.00 0.00 59 1020.4
20260501220913 57 66 0.0 0.0 0.00 0.00 0.00 58 1020.5
20260501220403 58 71 0.0 0.0 0.00 0.00 0.00 56 1020.5
20260501215903 59 72 0.0 0.0 0.00 0.00 0.00 53 1020.5
20260501215404 60 72 0.0 0.0 0.00 0.00 0.00 50 1020.5
20260501214903 61 72 1.0 2.0 0.00 0.00 0.00 49 1020.5